Helicity
133 136 144 133 136 139 146 157 171 159 143 117 107 78 79 95 65 79 70 56 56 51 50 57 76 73 82 88 98 96 98 111 111 101 109 123 118 157
172 163 161 165 159 167 170 173 189 213 204 149 133 138 124 111 90 104 83 73 61 56 48 49 70 79 82 86 84 75 74 94 121 109 108 116 93 110
212 208 189 192 193 194 197 203 212 252 248 192 161 158 156 132 118 112 94 83 81 68 59 63 68 74 69 68 69 75 78 72 95 99 105 100 93 71
226 245 209 236 220 216 224 214 222 244 268 201 188 171 143 132 117 115 106 100 93 71 56 62 58 58 60 59 66 77 68 62 58 72 81 84 75 80
231 258 221 280 252 276 269 258 267 244 264 273 229 185 152 145 135 125 118 110 101 62 60 51 55 53 65 77 80 63 53 61 54 55 58 75 80 57
247 270 263 301 285 290 314 286 291 285 297 289 260 223 184 149 162 145 145 138 126 97 72 68 58 54 84 77 54 58 49 46 47 49 55 65 66 65
248 259 268 274 241 274 342 315 335 314 315 302 278 266 246 200 189 155 179 162 137 124 95 106 127 116 97 72 57 51 52 43 40 51 62 67 70 63
239 236 249 220 208 182 191 223 283 340 328 300 273 278 224 224 213 203 207 180 128 98 96 121 145 119 122 117 44 34 39 44 48 50 51 53 54 49
226 230 242 245 208 262 199 176 182 179 206 228 263 283 232 253 257 232 211 210 182 154 147 99 116 117 153 130 47 43 37 41 40 41 37 41 50 54
227 234 238 220 232 254 277 301 311 317 239 226 271 221 249 243 221 236 215 204 180 142 146 142 127 132 124 118 53 50 39 42 40 39 46 48 54 52
211 238 238 233 177 151 299 317 329 255 180 148 143 147 160 135 181 250 237 205 171 149 164 163 156 143 99 95 98 59 74 73 77 75 40 38 44 48
243 237 149 198 151 144 265 340 296 224 202 193 180 150 146 177 139 187 239 248 173 151 160 170 157 95 20 37 61 83 137 94 63 42 34 39 41 44
270 246 247 144 127 130 139 302 249 174 166 174 192 210 231 235 219 218 242 201 183 189 211 219 171 129 112 86 58 64 83 88 73 61 45 47 44 45
279 262 256 158 125 121 156 130 106 105 208 220 230 232 220 231 231 211 191 184 179 160 177 203 157 124 120 73 45 54 83 111 117 128 125 84 52 47
285 241 197 151 128 138 127 124 98 178 203 235 233 216 230 218 215 211 178 157 157 153 159 175 173 140 125 88 58 62 47 71 88 123 123 117 113 118
175 218 221 182 188 222 192 161 191 216 192 199 236 236 249 246 204 202 177 179 177 142 144 147 142 136 104 97 84 71 74 75 89 109 122 122 123 119
143 218 264 286 243 230 230 209 202 195 184 217 221 216 220 212 193 196 183 196 175 155 153 145 125 119 127 109 109 118 95 95 118 121 96 91 88 105
133 206 205 235 244 222 223 203 219 182 204 211 229 219 210 198 179 189 194 177 162 139 135 138 141 138 106 101 109 121 110 98 96 102 101 101 87 111
125 169 211 200 197 203 205 205 215 216 180 208 202 202 193 183 137 181 174 162 146 136 132 138 148 145 98 94 114 79 151 132 134 145 163 167 148 140
108 143 186 227 196 195 179 198 196 186 180 183 188 205 197 181 176 178 171 177 156 126 104 117 143 135 146 144 114 100 68 147 172 163 165 171 162 64
88 130 157 174 212 194 176 169 164 167 168 184 199 206 191 183 163 148 155 109 79 99 89 94 127 80 122 134 148 144 146 88 108 163 157 149 139 136
100 100 132 177 176 205 188 159 161 143 156 202 199 197 183 165 140 149 135 116 103 90 75 75 88 117 132 127 121 111 123 123 93 66 67 85 164 164
122 104 86 139 152 155 168 156 150 162 176 207 206 187 165 143 145 138 119 109 94 93 95 79 93 117 114 118 88 111 101 129 151 136 149 124 95 103
Wind_Speed
41 42 43 44 43 44 45 47 52 64 65 56 54 46 51 59 66 64 66 68 67 66 64 62 63 61 61 64 60 56 55 57 58 55 53 53 51 51
43 43 43 44 43 42 42 44 45 53 64 55 56 55 54 63 65 65 67 70 68 68 66 62 63 61 64 65 62 58 57 58 60 57 55 55 53 52
42 42 44 44 46 45 44 45 47 49 63 64 59 59 62 65 67 65 68 69 66 65 64 61 63 65 67 67 62 58 58 62 63 60 58 56 55 53
46 46 49 48 48 47 47 48 50 51 58 69 66 64 63 62 64 67 66 63 62 63 63 65 67 70 68 63 58 58 64 63 62 59 59 57 56 57
50 51 51 50 52 50 50 51 53 54 57 63 69 62 62 60 64 62 63 63 62 63 65 69 69 68 63 62 61 67 66 64 63 60 59 58 60 58
52 51 53 52 53 53 53 54 55 57 57 63 67 69 66 60 59 66 66 60 65 64 66 64 64 56 55 67 67 67 65 64 62 60 58 60 58 55
57 56 55 53 52 52 54 55 54 56 61 64 66 66 65 63 63 59 62 66 66 64 62 56 53 52 61 66 62 65 64 62 58 58 59 58 57 57
61 59 56 54 53 52 53 53 51 55 60 63 65 64 63 59 57 56 60 64 69 56 57 63 55 64 66 64 62 63 63 59 59 59 60 60 58 55
61 60 59 54 52 54 53 52 51 49 50 57 59 58 58 53 55 56 56 58 61 62 65 75 59 65 63 63 61 62 58 58 64 64 61 55 55 56
60 59 58 58 54 54 54 54 52 50 56 53 51 54 51 50 49 51 54 57 59 61 57 69 63 68 63 58 60 59 62 63 56 53 52 54 63 67
63 59 58 59 57 54 55 57 56 54 54 50 52 49 49 46 45 47 50 53 61 63 48 54 60 63 58 60 58 56 49 45 42 54 61 68 72 72
67 62 58 59 57 53 53 55 58 58 56 51 49 48 46 45 41 41 45 49 57 68 48 46 54 54 61 50 45 37 42 52 70 70 71 71 72 70
74 71 64 59 56 53 49 49 55 53 51 49 50 48 48 45 42 41 45 47 51 49 47 45 52 49 51 59 55 56 60 65 66 68 72 75 74 70
80 75 68 61 57 53 49 49 50 54 50 49 50 49 48 45 42 42 42 42 42 43 44 40 49 44 50 61 65 58 61 61 60 67 66 68 70 68
81 77 72 66 60 54 51 50 53 52 51 51 50 49 46 43 42 43 43 42 45 44 41 37 41 45 49 60 70 70 71 58 57 59 59 62 65 63
85 82 75 69 62 59 57 54 51 50 50 51 50 48 45 43 43 46 46 45 46 47 39 36 38 44 56 57 60 67 65 62 57 62 65 66 65 65
90 84 79 73 69 63 58 53 51 51 51 50 48 49 47 45 44 46 47 45 45 47 46 43 44 47 49 53 60 63 69 71 70 71 68 71 68 70
88 83 79 72 68 64 61 57 52 52 51 49 47 46 44 43 45 46 42 42 43 45 45 49 51 55 56 55 46 61 63 67 67 67 66 74 83 79
82 77 72 68 64 60 58 56 55 50 50 47 47 43 40 39 46 42 39 38 41 41 46 47 48 48 53 61 58 48 59 66 70 72 69 74 86 87
72 68 65 61 60 58 57 54 52 54 50 45 42 37 34 40 43 41 36 37 38 45 48 45 44 42 45 55 63 62 56 65 67 74 79 75 74 86
69 61 59 60 58 54 52 50 51 51 46 41 36 32 35 38 38 35 34 32 38 38 42 44 41 40 44 52 61 66 65 56 55 65 75 80 86 82
64 64 59 55 53 50 51 52 52 50 45 35 32 33 36 33 31 30 29 33 34 37 39 41 44 45 46 48 57 66 70 66 62 60 59 63 79 87
56 58 62 55 52 53 51 51 50 46 36 31 30 36 32 29 26 25 29 27 30 31 31 36 39 39 39 43 47 60 65 67 65 63 57 51 51 54
Wind_Direction
331 330 330 330 331 331 330 330 328 325 326 330 327 328 324 327 328 329 328 327 326 324 323 321 321 319 317 317 314 312 309 309 306 305 303 300 300 302
325 326 326 326 327 327 327 326 325 322 321 327 327 325 325 323 325 325 325 324 323 322 321 319 319 317 315 313 311 309 306 306 304 303 301 299 297 297
318 318 318 320 321 321 322 322 320 319 316 321 322 323 322 321 322 323 322 322 322 322 320 319 317 314 312 309 308 307 304 303 301 299 299 298 296 294
311 311 312 314 313 315 315 315 314 315 315 315 320 321 320 322 321 321 323 324 323 321 319 316 314 312 310 307 305 305 303 300 299 297 296 295 294 293
308 307 307 308 308 309 309 310 311 312 312 313 316 320 320 321 320 321 321 322 322 320 318 313 312 309 308 306 303 301 299 298 296 295 294 294 292 291
306 305 304 302 303 304 305 305 308 308 310 311 313 314 316 319 319 318 319 322 321 320 318 314 313 312 311 307 303 300 299 298 295 294 294 293 292 292
307 305 303 300 298 300 302 303 304 306 308 309 311 312 313 314 314 318 317 319 320 321 320 320 317 315 311 309 306 303 300 298 296 295 295 295 294 292
308 307 304 302 300 298 298 300 302 302 304 308 307 307 308 311 314 315 316 318 319 322 321 316 316 311 309 308 304 302 299 296 295 295 294 293 293 294
309 308 307 306 302 301 299 298 297 297 300 304 302 304 307 308 312 312 313 314 314 316 315 311 314 310 311 308 305 302 299 296 294 292 291 292 292 292
309 308 306 306 305 303 302 300 298 298 301 299 296 301 301 305 305 308 310 312 314 315 315 310 312 308 311 309 304 301 297 295 295 294 292 292 291 289
310 308 306 305 305 302 303 302 302 299 304 298 295 298 300 301 304 307 308 310 313 315 318 315 315 312 312 308 307 303 302 300 300 295 290 287 286 286
310 308 305 304 304 301 299 301 301 304 306 305 302 298 298 299 297 298 305 307 311 313 317 313 314 314 310 313 312 314 308 298 290 288 286 286 286 287
307 307 306 304 301 300 297 298 300 306 304 303 304 303 303 301 298 297 302 304 307 306 315 314 312 311 308 304 305 303 299 294 292 291 290 289 289 291
303 304 304 303 301 298 295 295 298 305 303 302 302 301 301 302 301 301 300 303 303 303 310 309 310 308 307 303 299 303 301 298 298 296 296 295 293 294
302 300 300 299 299 298 295 297 300 303 302 300 298 300 300 302 304 304 304 306 307 308 307 304 304 306 305 301 297 297 299 302 301 299 299 298 298 298
305 300 298 297 295 295 297 297 298 299 299 299 299 300 302 303 302 303 304 307 308 308 306 303 304 305 303 300 300 298 298 297 301 300 298 298 298 297
308 303 299 294 293 291 294 294 296 298 299 301 300 301 301 302 303 302 305 307 305 307 308 308 307 305 303 302 300 299 298 296 296 297 298 297 298 296
305 301 298 294 290 288 289 292 293 294 297 299 298 299 300 302 303 304 306 306 306 308 308 309 309 308 307 305 298 301 301 299 300 300 299 298 296 296
306 301 299 296 293 289 289 290 292 295 297 298 298 299 301 302 303 305 306 306 307 308 309 309 309 309 309 307 310 308 304 303 302 301 301 298 297 297
314 308 303 299 296 292 291 290 293 296 296 296 299 300 302 303 305 305 306 307 309 310 310 311 310 310 309 310 311 311 310 307 305 303 302 302 301 299
319 313 310 304 300 295 294 293 294 295 294 296 299 300 303 305 305 307 309 309 311 313 313 314 316 318 316 317 313 312 314 312 306 304 306 304 303 305
323 317 313 310 304 299 296 294 294 294 294 296 301 303 306 307 307 310 311 312 312 314 316 319 322 322 320 317 315 315 317 318 316 310 304 301 303 303
329 322 313 310 307 300 297 295 293 295 296 298 302 304 307 307 311 314 315 318 320 322 324 326 328 328 323 320 318 319 319 320 320 319 316 310 302 296